SDR28KW EDDW-LEPA

Flight info

Callsign SDR28KW
Flight time N/A
Altitude 35000
Route WIMCI1M/09 WIMCI Y804 PIROT N850 XAROL DCT BOMBI/N0444F360 DCT GIGET DCT ABUKA DCT KRH DCT NATOR/N0443F370 DCT TRA DCT RIPUS DCT GERSA DCT SOSON DCT ODINA DCT PIDAD DCT TALEP DCT RARQU DCT BALEN/N0447F350 UT250 RIXOT
Aircraft A319/M-SDE2FGHIJ1M1RWXY/LB1

Departure

Time N/A
Airport Bremen Airport (EDDW)

Arrival

Time 2026-05-01 15:07
Airport Palma de Mallorca Airport (LEPA)
Time Latitude Longitude Altitude Speed Heading
2026-05-01 14:38 40.49824 4.86135 26562 ft 403 kts 236°
2026-05-01 14:38 40.48453 4.83635 26099 ft 396 kts 236°
2026-05-01 14:38 40.46853 4.80727 25247 ft 393 kts 236°
2026-05-01 14:39 40.45250 4.77811 24299 ft 394 kts 236°
2026-05-01 14:39 40.43651 4.74903 23455 ft 392 kts 236°
2026-05-01 14:39 40.42060 4.72005 22644 ft 389 kts 236°
2026-05-01 14:39 40.40506 4.69176 21890 ft 386 kts 236°
2026-05-01 14:40 40.38944 4.66338 21135 ft 381 kts 235°
2026-05-01 14:40 40.37396 4.63533 20374 ft 377 kts 235°
2026-05-01 14:40 40.35864 4.60768 19625 ft 373 kts 235°
2026-05-01 14:40 40.34345 4.58030 19032 ft 371 kts 235°
2026-05-01 14:41 40.32834 4.55298 18531 ft 369 kts 235°
2026-05-01 14:41 40.31327 4.52582 18015 ft 367 kts 235°
2026-05-01 14:41 40.29817 4.49894 17583 ft 365 kts 234°
2026-05-01 14:41 40.28326 4.47235 17168 ft 361 kts 235°
2026-05-01 14:42 40.26849 4.44590 16721 ft 358 kts 235°
2026-05-01 14:42 40.25388 4.41965 16274 ft 356 kts 235°
2026-05-01 14:42 40.23938 4.39356 15830 ft 353 kts 235°
2026-05-01 14:42 40.22496 4.36760 15382 ft 351 kts 235°
2026-05-01 14:43 40.21064 4.34187 14948 ft 349 kts 234°
2026-05-01 14:43 40.19639 4.31629 14504 ft 347 kts 234°
2026-05-01 14:43 40.18226 4.29091 14073 ft 345 kts 234°
2026-05-01 14:43 40.16818 4.26564 13633 ft 342 kts 234°
2026-05-01 14:44 40.15419 4.24058 13186 ft 340 kts 234°
2026-05-01 14:44 40.12639 4.19087 12310 ft 336 kts 234°
2026-05-01 14:44 40.11259 4.16622 12200 ft 336 kts 234°
2026-05-01 14:45 40.09873 4.14151 12218 ft 338 kts 234°
2026-05-01 14:45 40.07107 4.09242 12220 ft 338 kts 234°
2026-05-01 14:45 40.05716 4.06767 12220 ft 338 kts 234°
2026-05-01 14:46 40.04329 4.04299 12220 ft 338 kts 234°
2026-05-01 14:46 40.01546 3.99361 12220 ft 338 kts 234°
2026-05-01 14:46 40.00155 3.96887 12220 ft 338 kts 234°
2026-05-01 14:47 39.98767 3.94416 12220 ft 338 kts 234°
2026-05-01 14:47 39.97376 3.91948 12220 ft 338 kts 234°
2026-05-01 14:47 39.95979 3.89481 12220 ft 338 kts 234°
2026-05-01 14:48 39.93194 3.84556 12219 ft 337 kts 234°
2026-05-01 14:48 39.91805 3.82097 12218 ft 337 kts 234°
2026-05-01 14:48 39.89017 3.77169 12220 ft 338 kts 234°
2026-05-01 14:49 39.86222 3.72257 12220 ft 338 kts 234°
2026-05-01 14:49 39.83423 3.67347 12211 ft 337 kts 234°
2026-05-01 14:50 39.81574 3.64097 12210 ft 338 kts 234°
2026-05-01 14:50 39.77833 3.57535 12211 ft 337 kts 234°
2026-05-01 14:51 39.76433 3.55080 12076 ft 338 kts 234°
2026-05-01 14:51 39.73653 3.50200 11550 ft 335 kts 233°
2026-05-01 14:52 39.70871 3.45361 11054 ft 333 kts 233°
2026-05-01 14:52 39.69571 3.42885 10810 ft 328 kts 240°
2026-05-01 14:52 39.67611 3.37799 10557 ft 304 kts 243°
2026-05-01 14:53 39.66680 3.35377 10325 ft 297 kts 243°
2026-05-01 14:53 39.65773 3.33021 10062 ft 296 kts 243°
2026-05-01 14:53 39.64852 3.30638 9812 ft 295 kts 243°
2026-05-01 14:53 39.63931 3.28263 9562 ft 295 kts 243°
2026-05-01 14:54 39.63015 3.25899 9343 ft 289 kts 243°
2026-05-01 14:54 39.62129 3.23611 9216 ft 278 kts 243°
2026-05-01 14:54 39.61280 3.21409 9086 ft 268 kts 243°
2026-05-01 14:54 39.60459 3.19282 8901 ft 261 kts 243°
2026-05-01 14:55 39.59653 3.17197 8602 ft 258 kts 242°
2026-05-01 14:55 39.58850 3.15124 8276 ft 256 kts 242°
2026-05-01 14:55 39.58049 3.13064 7940 ft 255 kts 242°
2026-05-01 14:55 39.57252 3.11008 7695 ft 255 kts 242°
2026-05-01 14:56 39.56457 3.08961 7491 ft 254 kts 242°
2026-05-01 14:56 39.55663 3.06918 7294 ft 253 kts 242°
2026-05-01 14:56 39.54871 3.04883 7093 ft 253 kts 242°
2026-05-01 14:56 39.54078 3.02852 6891 ft 252 kts 242°
2026-05-01 14:57 39.53290 3.00832 6689 ft 251 kts 242°
2026-05-01 14:57 39.51720 2.96798 6286 ft 250 kts 242°
2026-05-01 14:57 39.50935 2.94787 6085 ft 249 kts 242°
2026-05-01 14:58 39.50157 2.92787 5889 ft 249 kts 242°
2026-05-01 14:58 39.49378 2.90794 5682 ft 247 kts 242°
2026-05-01 14:58 39.48601 2.88813 5483 ft 247 kts 242°
2026-05-01 14:58 39.47827 2.86834 5279 ft 246 kts 242°
2026-05-01 14:59 39.47055 2.84863 5100 ft 245 kts 241°
2026-05-01 14:59 39.46282 2.82895 5005 ft 245 kts 241°
2026-05-01 14:59 39.45512 2.80933 5009 ft 245 kts 241°
2026-05-01 14:59 39.44741 2.78962 5003 ft 246 kts 241°
2026-05-01 15:00 39.43211 2.75051 4643 ft 244 kts 241°
2026-05-01 15:00 39.42446 2.73097 4466 ft 243 kts 241°
2026-05-01 15:00 39.41677 2.71147 4291 ft 243 kts 241°
2026-05-01 15:01 39.40900 2.69180 4127 ft 242 kts 241°
2026-05-01 15:01 39.40148 2.67272 4017 ft 241 kts 241°
2026-05-01 15:01 39.39391 2.65348 4000 ft 241 kts 241°
2026-05-01 15:01 39.38657 2.63399 4007 ft 242 kts 248°
2026-05-01 15:02 39.38363 2.61249 3817 ft 248 kts 270°
2026-05-01 15:02 39.38409 2.60498 3731 ft 247 kts 278°
2026-05-01 15:02 39.39535 2.57218 3607 ft 242 kts 310°
2026-05-01 15:02 39.40678 2.55606 3341 ft 245 kts 322°
2026-05-01 15:03 39.42107 2.54532 3208 ft 231 kts 339°
2026-05-01 15:03 39.43582 2.53791 3119 ft 224 kts 342°
2026-05-01 15:03 39.45040 2.53178 2980 ft 216 kts 355°
2026-05-01 15:03 39.46403 2.53601 2847 ft 198 kts 42°
2026-05-01 15:04 39.47127 2.55020 2790 ft 189 kts 69°
2026-05-01 15:04 39.47773 2.56511 2586 ft 189 kts 60°
2026-05-01 15:04 39.48469 2.57937 2378 ft 185 kts 61°
2026-05-01 15:04 39.49148 2.59350 2105 ft 183 kts 61°
2026-05-01 15:05 39.49809 2.60736 1860 ft 179 kts 61°
2026-05-01 15:05 39.50444 2.62070 1627 ft 168 kts 61°
2026-05-01 15:05 39.51040 2.63323 1413 ft 157 kts 61°
2026-05-01 15:05 39.51592 2.64484 1213 ft 147 kts 61°
2026-05-01 15:06 39.52114 2.65584 1023 ft 141 kts 61°
2026-05-01 15:06 39.52623 2.66658 837 ft 139 kts 61°
2026-05-01 15:06 39.53126 2.67725 658 ft 139 kts 61°
2026-05-01 15:06 39.53622 2.68770 467 ft 139 kts 60°
2026-05-01 15:07 39.54131 2.69833 278 ft 138 kts 60°
2026-05-01 15:07 39.54632 2.70896 135 ft 139 kts 60°
2026-05-01 15:07 39.55120 2.71926 38 ft 123 kts 59°
2026-05-01 15:07 39.55441 2.72607 38 ft 47 kts 58°
2026-05-01 15:08 39.55495 2.72894 38 ft 31 kts 89°